User: anonymous   Login
Location: Unspecified
(0.0000°N, 0.0000°E)
Time: 18:47:27
(UTC+00:00)
Language:

Nadezhda 4 - Orbit

View from above orbital plane
View from above orbital plane
View from above satellite
View from above satellite

Ground track
Ground track

The orbit data is extracted from the following two-line orbital elements,

1 23179U 94041A   17145.97219935 +.00000019 +00000-0 +38040-5 0  9993
2 23179 082.9447 323.8243 0034928 349.6783 175.1868 13.76533513148432
Epoch (UTC): 25 May 2017 23:19:58
Eccentricity: 0.0034928
inclination: 82.9447°
perigee height: 950 km
apogee height: 1002 km
right ascension of ascending node: 323.8243°
argument of perigee: 349.6783°
revolutions per day: 13.76533513
mean anomaly at epoch: 175.1868°
orbit number at epoch: 14843

The dashed part of the orbit path shows where the satellite is in the earth's shadow,  

DLR